Regional Weather Roundup
Issued by NWS

Home | Current Version | Previous Version | Graphics & Text | Print | Product List | Glossary On
Versions: 1 2 3 4 5 6 7 8 9 10 11 12 13 14 15 16 17 18 19 20 21 22 23 24 25 26 27 28 29 30 31 32 33 34 35 36 37 38 39 40 41 42 43 44 45 46 47 48 49 50
000
ASUS43 KLSX 270507
RWRMO

WEATHER SUMMARY FOR MISSOURI
NATIONAL WEATHER SERVICE SPRINGFIELD MO
1200 AM CDT SAT MAY 27 2017

NOTE: "FAIR" INDICATES FEW OR NO CLOUDS BELOW 12,000 FEET WITH NO
       SIGNIFICANT WEATHER AND/OR OBSTRUCTIONS TO VISIBILITY.
       CURRENT SKY AND/OR WEATHER CONDITIONS ARE NOT AVAILABLE FOR
       CHILLICOTHE AND FARMINGTON.

MOZ001>031-035>038-043-044-053-054-270600-
...NORTHERN AND WESTERN MISSOURI...

CITY           SKY/WX    TMP DP  RH WIND       PRES   REMARKS
KANSAS CTY INT PTCLDY    71  63  75 SE7       29.84S
KANSAS C DTWN  CLEAR     72  64  76 NE5       29.83R
LEE`S SUMMIT   CLEAR     71  66  84 SE5       29.85R
ST JOSEPH      CLEAR     67  65  93 N3        29.83S
CHILLICOTHE      N/A     66  65  96 CALM      29.85S
KIRKSVILLE     CLEAR     66  61  84 E5        29.88R

$$
MOZ066>068-077>081-088>096-101>105-270600-
...SOUTHWEST MISSOURI...

CITY           SKY/WX    TMP DP  RH WIND       PRES   REMARKS
SPRINGFIELD    MOCLDY    74  69  85 E6        29.85S
JOPLIN         PTCLDY    74  70  87 E5        29.83S
BRANSON        CLOUDY    72  72 100 CALM      29.86F

$$
MOZ032>034-039>042-045>050-055>058-069>072-270600-
...CENTRAL MISSOURI...

CITY           SKY/WX    TMP DP  RH WIND       PRES   REMARKS
COLUMBIA       CLEAR     71  68  90 S3        29.85S
JEFFERSON CITY CLEAR     70  66  87 CALM      29.84R
ROLLA          CLEAR     66  65  96 CALM      29.86S
SEDALIA        CLEAR     70  68  93 S3        29.86R
WHITEMAN AFB   CLEAR     67  67 100 S3        29.84R
WARRENSBURG    CLEAR     68  64  88 CALM      29.84S
OSAGE BEACH    CLEAR     67  66  97 CALM      29.86S

$$
MOZ051-052-059>065-270600-
...EAST CENTRAL MISSOURI...

CITY           SKY/WX    TMP DP  RH WIND       PRES   REMARKS
ST LOUIS INTL  PTCLDY    76  68  76 SW8       29.84S
SPIRIT OF STL  PTCLDY    71  69  93 SW5       29.83S
ST CHARLES     MOCLDY    72  69  90 N3        29.83S

$$
MOZ072>076-082>087-097>100-106>115-270600-
...SOUTH CENTRAL AND SOUTHEAST MISSOURI...

CITY           SKY/WX    TMP DP  RH WIND       PRES   REMARKS
CAPE GIRARDEAU CLOUDY    72  67  84 NW5       29.87R
FARMINGTON     CLOUDY    70  67  90 CALM      29.89S
POPLAR BLUFF   CLOUDY    71  70  96 CALM      29.86F
WEST PLAINS    MOCLDY    73  69  87 SE5       29.89S

$$




USA.gov is the U.S. government's official web portal to all federal, state and local government web resources and services.